Temp
57 56 57 57 57 57 57 58 58 59 58 59 56 56 59 58 54 48 46 49 47 55 53 52 56 56 55 54 54 54 54 55 55 51 49 47 46 50 52 51 51 51 51 50 50 49 50 51 52 54 54 54 54 52 51 51 51 52 52 52 53 52 51 51 52 55 56 57 55 53 53 53 53 53
55 55 56 56 56 57 57 57 56 57 58 57 58 56 56 58 57 50 48 48 46 51 54 51 54 55 56 55 54 54 53 56 56 52 51 48 47 51 51 51 49 49 49 49 49 48 49 51 53 54 52 52 52 51 51 51 51 51 51 51 52 52 52 51 53 54 55 56 55 54 53 53 53 54
57 56 56 54 55 55 56 55 56 56 58 57 58 56 56 57 58 56 53 49 51 51 53 55 55 57 56 58 55 56 55 56 56 52 51 52 52 53 51 51 50 49 50 49 47 48 50 50 51 52 53 53 53 53 52 52 52 51 50 49 51 52 51 51 52 54 54 54 54 53 53 53 53 54
57 57 56 54 56 56 57 57 56 55 56 58 58 57 56 54 53 55 53 53 53 49 49 52 55 57 56 56 55 54 57 58 56 52 52 53 55 51 48 50 50 50 49 49 48 51 52 52 51 52 52 49 52 50 50 52 51 49 48 48 50 50 50 50 50 53 53 54 53 52 52 53 53 53
56 56 55 54 55 55 57 55 56 57 56 56 57 57 56 53 54 56 52 52 51 54 51 53 55 55 55 55 55 55 54 54 54 55 53 52 49 49 49 48 49 49 49 49 49 48 48 47 48 48 47 47 49 48 49 50 50 48 46 47 47 49 49 49 49 50 52 52 52 51 51 51 52 53
57 54 55 55 54 55 57 57 59 59 58 59 57 57 57 56 55 57 55 50 51 50 54 56 55 54 55 58 55 55 53 54 53 55 54 52 51 52 49 48 48 49 49 49 48 49 49 48 48 47 47 48 48 49 48 47 46 48 45 45 45 50 48 48 47 47 49 51 51 50 50 50 51 53
54 55 55 55 56 57 57 56 57 58 59 59 59 57 58 57 56 55 57 54 51 52 52 52 55 53 55 54 58 57 55 53 55 54 53 54 56 56 51 50 51 50 48 48 49 49 48 48 47 47 47 48 47 48 48 47 46 45 44 45 46 45 43 42 42 43 45 50 51 50 50 49 51 54
55 55 54 53 54 56 57 56 56 55 55 57 56 56 54 57 56 55 54 57 49 49 54 51 56 56 53 54 55 58 56 52 54 55 55 56 56 55 56 52 51 53 49 48 48 49 49 48 47 47 47 47 48 48 47 47 47 45 46 45 45 44 42 41 41 41 44 47 49 50 50 50 52 54
54 54 55 54 53 55 56 53 55 56 56 57 57 57 56 56 56 56 56 55 54 54 54 54 53 52 53 54 53 56 57 54 55 54 53 53 52 52 52 55 58 52 49 50 50 49 49 48 47 47 47 48 48 48 48 48 48 47 47 46 45 44 43 42 42 44 44 44 45 49 49 50 52 54
53 54 53 53 52 53 55 53 53 53 54 54 55 56 56 57 55 55 52 53 55 56 55 54 54 52 55 54 53 53 55 55 53 52 50 50 49 49 51 52 56 56 56 52 51 52 51 52 51 50 50 49 49 49 49 49 49 48 47 46 46 45 44 44 44 43 43 44 43 45 47 49 51 54
54 53 53 53 52 53 53 53 53 53 53 56 55 56 56 56 55 54 53 53 54 54 54 51 51 52 51 51 52 52 52 51 50 49 48 49 49 47 47 52 52 51 52 51 51 51 50 51 52 50 50 50 50 49 49 49 49 49 46 45 45 45 44 44 44 45 44 44 44 44 44 46 48 52
54 53 54 53 53 54 54 54 53 55 55 54 54 52 54 54 55 54 52 52 52 52 52 51 52 48 49 48 48 49 50 51 49 48 44 46 47 48 45 46 49 49 49 50 51 52 51 50 51 50 50 51 50 50 50 51 50 49 47 45 44 44 44 45 45 45 45 45 44 44 44 43 44 47
54 53 54 54 53 56 59 56 56 56 56 56 55 51 51 52 53 51 52 52 49 49 51 50 47 48 47 46 48 47 44 45 47 47 43 43 45 43 46 48 46 48 47 46 48 50 48 48 48 48 49 51 51 50 50 51 50 49 47 46 45 45 45 45 45 46 46 45 45 44 44 44 44 43
54 55 54 55 60 58 56 53 51 51 52 55 56 54 53 53 53 52 51 50 50 50 49 48 47 48 46 45 46 44 45 45 44 45 43 44 43 40 43 44 41 45 47 45 45 47 48 47 47 48 47 49 49 48 48 48 49 48 47 48 47 46 45 45 45 45 45 45 45 45 44 44 44 43
55 54 53 53 57 56 55 51 47 47 47 47 48 49 52 54 56 53 51 50 49 49 50 46 46 46 45 45 45 46 46 43 44 42 42 43 42 41 41 42 40 42 47 42 41 45 46 46 46 47 47 47 48 47 46 47 48 47 47 47 47 47 46 46 45 45 45 45 45 45 45 44 44 43
54 54 54 53 55 55 55 52 48 47 46 45 44 43 44 47 50 51 54 51 47 48 49 47 47 47 47 46 45 44 44 44 43 43 43 41 41 39 40 39 41 45 45 41 39 43 46 45 45 44 47 47 46 47 46 46 46 47 46 46 46 46 46 46 46 46 45 44 44 44 44 44 43 43
54 52 52 54 54 56 57 55 51 50 48 44 44 44 44 45 44 45 45 47 54 52 51 50 46 47 46 46 44 46 45 44 45 42 42 40 39 40 40 41 37 42 43 39 38 38 42 42 42 42 44 45 45 45 45 46 46 46 46 46 45 45 45 46 46 45 45 44 44 44 44 43 43 42
54 54 54 54 53 53 54 53 52 51 49 48 48 49 49 48 47 45 43 43 46 50 53 51 50 48 50 49 46 47 46 46 44 42 42 41 40 40 43 43 40 42 43 41 37 35 39 40 39 40 42 44 43 43 44 45 45 46 45 45 45 45 45 45 45 45 45 45 45 44 44 43 42 42
56 55 56 56 55 54 53 53 52 51 50 49 50 49 49 48 48 47 47 48 51 51 51 52 51 49 49 50 49 46 46 47 45 43 43 41 42 42 40 39 38 40 42 39 38 38 37 36 38 39 40 42 42 40 43 44 45 45 45 44 44 45 45 45 44 44 45 45 44 44 43 42 42 41
54 54 56 56 56 55 55 52 47 50 52 51 51 50 48 47 45 44 43 40 43 48 49 50 49 49 49 47 48 47 46 44 43 44 42 41 39 39 38 39 36 37 40 39 39 36 36 36 37 37 39 38 40 39 39 43 45 45 45 45 44 44 44 44 44 44 45 44 44 44 43 42 42 41
54 55 55 54 54 54 54 50 43 45 47 51 51 50 48 46 46 44 44 42 42 43 44 44 45 44 43 43 43 42 43 44 43 42 42 38 35 38 34 36 34 38 36 39 37 36 35 35 36 37 37 37 39 37 39 40 44 44 44 44 44 44 44 44 44 44 44 44 44 44 43 43 42 42
54 56 55 56 55 55 55 48 43 43 48 52 51 49 48 46 44 43 43 45 42 41 41 42 42 42 42 42 42 41 41 42 42 41 41 40 36 37 37 35 35 35 35 39 39 37 36 34 34 36 35 34 35 37 37 39 42 43 43 43 43 43 44 44 44 44 44 44 44 44 43 43 42 40
52 53 53 53 54 54 53 47 43 42 47 53 52 51 50 46 45 44 44 44 44 43 43 41 41 41 41 41 42 42 41 42 42 42 43 38 38 36 35 35 33 32 31 35 40 38 33 34 35 34 34 31 32 33 37 40 40 40 40 41 40 42 43 43 43 43 43 43 44 44 43 43 42 40
51 51 52 51 46 45 46 44 42 42 44 52 52 51 48 46 45 46 45 46 47 45 44 43 42 41 39 39 39 37 39 42 42 40 40 39 39 38 35 36 33 34 34 33 38 38 33 33 35 32 35 32 29 31 35 37 38 40 39 39 37 41 42 42 42 42 42 43 43 43 43 42 42 39
52 51 51 51 48 44 43 43 42 42 42 46 51 51 49 49 47 44 45 46 45 47 46 44 43 42 41 39 38 37 37 38 38 39 39 38 37 37 35 32 33 34 32 33 41 37 35 33 34 31 32 32 33 34 31 35 38 36 39 37 38 39 39 39 40 39 41 41 42 42 42 42 42 42
51 52 51 50 48 44 43 43 41 41 42 44 50 51 45 42 42 47 47 46 45 45 43 43 42 41 40 38 39 39 38 39 40 39 38 36 35 34 36 36 34 33 36 36 41 38 37 33 33 34 33 32 32 32 33 34 38 38 36 36 38 39 39 39 37 37 38 39 40 40 41 42 42 43
51 51 49 48 46 43 42 41 40 41 42 43 45 43 41 41 42 45 47 45 45 44 44 42 41 39 40 40 39 39 38 37 37 36 35 35 36 37 37 36 36 39 39 36 40 38 37 34 32 34 35 34 32 33 34 34 35 35 35 36 38 38 39 36 37 38 37 38 40 42 41 40 41 41
51 49 47 46 41 41 40 41 41 40 42 44 41 41 41 41 43 46 45 45 44 41 40 40 40 39 38 40 38 39 40 37 38 39 39 38 37 38 37 35 37 38 37 38 36 35 36 35 35 35 34 33 33 32 32 36 35 34 35 38 37 38 38 38 37 38 39 38 39 39 37 37 39 39
49 46 43 40 39 40 40 40 40 41 41 39 39 40 40 44 45 45 43 42 42 40 39 40 39 39 39 40 38 38 38 38 37 37 37 35 34 33 34 34 34 35 37 38 36 36 36 37 35 35 35 37 36 37 36 35 34 34 35 35 36 37 37 38 36 35 38 37 38 37 37 36 37 39
42 40 39 38 38 38 39 42 42 42 41 39 40 40 43 46 45 44 43 42 42 40 40 40 40 39 38 38 37 37 38 38 36 35 34 35 35 34 35 36 36 34 34 35 37 36 36 36 36 36 38 39 38 37 37 35 34 34 35 34 36 37 35 35 37 37 38 37 37 37 38 37 37 37
40 39 40 39 38 39 39 39 38 39 40 42 44 44 44 44 45 44 44 43 41 40 40 38 38 37 37 36 36 34 36 36 34 34 35 34 33 33 32 33 34 34 36 34 36 37 36 36 36 35 34 35 36 35 35 35 33 34 34 35 34 33 35 37 37 36 36 37 38 36 36 35 36 37
40 40 38 39 41 41 42 40 39 38 39 39 39 41 41 42 41 42 42 41 40 40 40 38 35 34 37 36 34 34 35 33 33 34 34 34 33 32 31 31 31 31 33 34 35 37 38 37 35 36 35 35 34 36 36 35 34 34 34 34 35 34 35 35 35 36 37 36 35 34 34 34 34 35
40 40 39 38 39 39 39 38 38 38 39 39 40 42 42 41 42 42 43 41 40 38 38 37 37 35 35 34 34 35 34 35 34 31 33 31 35 30 32 31 32 31 31 31 33 35 35 35 35 36 36 38 38 38 35 32 34 35 33 34 33 33 34 35 35 35 36 34 33 33 33 35 35 36
38 37 37 37 37 37 39 39 39 38 38 39 39 38 38 39 41 40 41 40 38 37 37 36 36 35 34 33 33 34 34 31 32 34 36 33 31 32 30 32 30 31 30 32 33 34 35 36 36 36 35 35 37 38 38 36 34 36 35 34 34 33 34 35 35 35 34 32 32 31 32 33 35 36
37 37 36 35 36 37 39 39 38 38 39 38 38 37 37 37 38 38 38 37 36 36 35 34 32 31 34 32 33 33 31 34 32 31 29 29 31 33 31 30 30 31 30 30 31 34 36 36 36 35 35 35 36 37 41 40 36 35 35 34 33 32 33 34 33 33 33 31 30 30 31 33 35 35
36 38 38 37 37 36 37 37 37 37 38 38 37 37 37 37 37 38 37 36 37 35 35 33 31 32 33 33 31 31 30 29 30 30 30 29 29 29 30 30 31 30 30 32 33 36 36 35 34 33 32 32 32 32 34 41 41 37 34 32 33 32 32 33 32 32 33 32 31 30 31 32 32 34
37 37 37 37 36 36 37 36 37 37 38 38 38 39 39 38 37 39 37 36 38 35 34 33 32 32 32 31 30 30 30 29 28 27 27 28 28 29 30 30 30 29 29 32 34 35 35 33 33 33 32 31 31 30 33 36 38 39 36 31 32 33 32 32 32 32 33 31 31 30 31 30 30 33
37 37 36 36 37 37 37 37 38 37 38 38 38 38 39 38 37 37 37 37 34 32 32 32 31 31 30 29 29 28 26 25 26 27 27 28 27 28 30 30 29 29 30 31 33 34 32 32 32 33 33 31 30 31 31 35 35 35 39 37 33 34 34 33 33 33 33 31 30 31 31 30 31 33
37 36 36 35 35 37 36 36 36 38 38 38 38 38 37 36 37 36 36 35 34 32 31 30 29 28 29 27 26 27 26 27 27 28 28 27 28 30 29 29 29 31 30 30 31 32 32 31 33 34 33 32 31 32 33 31 32 36 38 39 36 34 34 33 33 33 32 30 31 32 33 34 36 36
37 37 37 36 36 36 37 36 37 38 38 37 37 38 38 37 37 36 35 34 33 32 31 31 31 31 29 28 28 28 29 29 29 28 27 27 29 29 28 28 30 32 32 31 31 32 32 32 33 34 34 34 35 35 34 34 33 33 34 36 38 36 34 33 33 31 29 30 31 30 30 32 31 33
37 37 37 38 38 38 37 36 36 35 35 37 39 38 38 38 37 36 35 33 32 32 31 30 31 31 29 28 30 31 29 27 27 26 25 26 28 29 31 33 32 33 32 32 31 30 31 35 36 35 34 34 34 33 32 31 30 31 32 34 36 36 36 36 34 30 28 30 30 30 29 28 28 28
38 38 39 38 37 37 37 37 37 37 35 37 37 37 37 37 36 36 35 34 33 32 31 30 29 29 27 26 27 28 29 27 26 25 26 26 28 30 32 33 32 33 32 32 33 32 34 35 35 34 34 32 33 32 31 31 30 32 33 35 33 34 36 36 35 34 31 31 31 29 29 29 28 28
36 37 37 37 37 37 38 36 36 36 37 37 38 37 37 36 36 35 35 34 33 32 30 28 27 27 26 24 24 26 28 27 26 28 27 29 31 32 33 33 33 33 33 33 34 33 33 34 34 34 33 33 32 32 31 31 30 31 33 34 33 32 31 34 34 35 35 35 35 33 31 30 28 27
38 37 37 38 36 37 37 38 38 38 38 37 37 37 37 35 34 34 34 34 33 31 30 30 28 28 27 26 26 25 25 26 26 27 29 31 32 34 33 33 33 34 34 33 32 33 34 34 34 33 33 33 33 31 31 31 31 33 33 33 32 30 27 27 26 29 32 33 34 34 35 34 33 33
35 36 37 37 37 37 37 38 37 36 36 35 35 34 34 34 34 33 33 32 31 31 31 29 29 28 28 29 32 31 28 31 27 26 30 32 33 33 33 33 33 33 33 34 32 32 32 34 35 34 33 33 33 31 32 31 32 33 33 32 32 31 27 29 28 27 28 30 33 34 33 34 34 34
MSLP
1019.88 1020.04 1020.16 1020.32 1020.60 1020.92 1021.00 1021.08 1021.16 1021.08 1021.16 1021.32 1021.56 1021.60 1021.68 1022.08 1022.80 1023.68 1024.00 1024.12 1024.12 1023.96 1023.68 1023.96 1023.92 1024.00 1024.12 1024.12 1024.28 1024.36 1024.44 1024.52 1024.60 1024.72 1024.80 1024.80 1024.88 1024.92 1024.96 1025.00 1025.00 1025.00 1025.00 1024.96 1024.92 1024.92 1024.88 1024.88 1024.84 1024.68 1024.68 1024.64 1024.64 1024.68 1024.64 1024.64 1024.60 1024.56 1024.44 1024.36 1024.28 1024.20 1024.12 1024.04 1023.92 1023.80 1023.72 1023.68 1023.68 1023.64 1023.60 1023.48 1023.40 1023.24
1019.88 1020.04 1020.20 1020.32 1020.44 1020.68 1020.84 1020.96 1021.08 1021.24 1021.28 1021.40 1021.56 1021.72 1022.00 1021.88 1022.24 1022.84 1023.64 1024.00 1023.72 1023.72 1023.64 1023.56 1023.68 1023.88 1023.96 1024.04 1024.16 1024.28 1024.24 1024.32 1024.48 1024.60 1024.64 1024.72 1024.84 1024.96 1025.00 1025.04 1025.08 1025.12 1025.12 1025.08 1025.00 1024.96 1024.96 1024.96 1024.92 1024.88 1024.80 1024.76 1024.72 1024.72 1024.72 1024.68 1024.68 1024.68 1024.64 1024.56 1024.44 1024.36 1024.32 1024.24 1024.08 1023.96 1023.84 1023.80 1023.76 1023.72 1023.68 1023.60 1023.48 1023.36
1019.80 1019.96 1020.12 1020.20 1020.28 1020.52 1020.72 1020.96 1021.16 1021.36 1021.44 1021.40 1021.56 1021.80 1021.92 1022.24 1021.88 1022.28 1022.96 1023.64 1023.48 1023.44 1023.48 1023.32 1023.32 1023.44 1023.68 1023.76 1023.80 1024.04 1024.12 1024.12 1024.28 1024.44 1024.52 1024.56 1024.80 1024.88 1024.96 1025.04 1025.08 1025.08 1025.04 1025.04 1025.08 1025.04 1025.00 1025.00 1025.00 1025.00 1024.96 1024.84 1024.76 1024.76 1024.76 1024.72 1024.72 1024.72 1024.72 1024.68 1024.60 1024.52 1024.48 1024.40 1024.28 1024.12 1024.04 1023.96 1023.88 1023.80 1023.68 1023.56 1023.48 1023.40
1019.76 1019.84 1020.04 1020.20 1020.36 1020.52 1020.72 1021.00 1021.16 1021.28 1021.40 1021.28 1021.48 1021.76 1021.96 1022.28 1022.40 1022.20 1022.52 1022.80 1023.16 1023.32 1023.12 1023.20 1023.32 1023.36 1023.52 1023.76 1023.88 1023.88 1023.96 1024.04 1024.20 1024.40 1024.44 1024.48 1024.76 1024.80 1024.92 1025.00 1025.00 1025.00 1024.96 1024.96 1025.00 1025.04 1025.00 1025.00 1025.04 1025.08 1025.08 1025.04 1024.96 1024.88 1024.80 1024.76 1024.76 1024.76 1024.76 1024.72 1024.68 1024.60 1024.56 1024.52 1024.40 1024.24 1024.12 1024.04 1023.96 1023.88 1023.80 1023.64 1023.52 1023.40
1019.76 1019.92 1020.08 1020.20 1020.36 1020.44 1020.56 1020.84 1021.08 1021.24 1021.24 1021.32 1021.44 1021.64 1021.92 1022.36 1022.40 1022.28 1022.72 1023.12 1023.40 1023.40 1023.52 1023.32 1023.40 1023.52 1023.64 1023.88 1023.88 1023.88 1023.92 1023.96 1024.16 1024.36 1024.48 1024.64 1024.72 1024.80 1024.84 1024.92 1024.96 1024.92 1024.92 1024.88 1024.92 1025.00 1025.04 1025.04 1025.04 1025.08 1025.12 1025.12 1025.04 1024.96 1024.84 1024.76 1024.72 1024.72 1024.68 1024.68 1024.64 1024.60 1024.60 1024.56 1024.52 1024.40 1024.24 1024.12 1024.04 1023.96 1023.88 1023.76 1023.60 1023.44
1019.88 1019.96 1020.08 1020.24 1020.40 1020.52 1020.60 1020.88 1021.04 1021.12 1021.20 1021.28 1021.56 1021.72 1021.88 1022.24 1022.40 1022.20 1022.60 1023.20 1023.16 1023.48 1023.52 1023.52 1023.60 1023.64 1023.76 1023.64 1023.84 1023.80 1023.96 1023.96 1024.12 1024.40 1024.48 1024.60 1024.64 1024.64 1024.76 1024.80 1024.80 1024.88 1024.88 1024.84 1024.84 1024.92 1025.08 1025.08 1025.08 1025.12 1025.12 1025.04 1024.96 1024.84 1024.80 1024.76 1024.68 1024.60 1024.56 1024.56 1024.56 1024.52 1024.52 1024.56 1024.52 1024.40 1024.28 1024.16 1024.08 1024.00 1023.92 1023.84 1023.68 1023.48
1020.04 1020.00 1020.08 1020.28 1020.44 1020.56 1020.56 1020.68 1020.80 1020.92 1021.08 1021.20 1021.40 1021.72 1021.84 1022.08 1022.24 1022.32 1022.28 1022.76 1023.28 1023.44 1023.52 1023.52 1023.64 1023.68 1023.76 1023.64 1023.52 1023.68 1023.88 1024.20 1024.24 1024.16 1024.20 1024.32 1024.52 1024.56 1024.72 1024.72 1024.72 1024.76 1024.80 1024.84 1024.88 1024.92 1025.08 1025.16 1025.16 1025.16 1025.08 1024.92 1024.80 1024.68 1024.64 1024.68 1024.60 1024.52 1024.48 1024.44 1024.48 1024.52 1024.52 1024.56 1024.52 1024.44 1024.28 1024.12 1024.00 1023.96 1023.88 1023.84 1023.68 1023.48
1020.16 1020.12 1020.20 1020.32 1020.40 1020.40 1020.56 1020.76 1020.80 1020.92 1021.04 1021.16 1021.36 1021.60 1021.80 1021.88 1022.16 1022.32 1022.40 1022.28 1022.76 1023.32 1023.44 1023.56 1023.48 1023.48 1023.56 1023.60 1023.48 1023.56 1023.96 1024.00 1024.12 1024.08 1024.20 1024.32 1024.40 1024.52 1024.68 1024.72 1024.72 1024.72 1024.80 1024.88 1024.96 1025.04 1025.12 1025.16 1025.12 1025.04 1024.92 1024.80 1024.68 1024.56 1024.48 1024.44 1024.40 1024.36 1024.36 1024.44 1024.48 1024.48 1024.52 1024.48 1024.44 1024.36 1024.24 1024.16 1024.04 1023.92 1023.84 1023.76 1023.60 1023.44
1020.28 1020.28 1020.28 1020.48 1020.52 1020.44 1020.64 1020.88 1020.88 1021.00 1021.04 1021.12 1021.12 1021.32 1021.64 1021.80 1022.04 1022.24 1022.28 1022.32 1022.40 1022.80 1023.04 1023.16 1023.28 1023.40 1023.36 1023.36 1023.32 1023.52 1023.76 1024.12 1024.16 1024.32 1024.44 1024.56 1024.64 1024.68 1024.72 1024.72 1024.84 1024.92 1024.96 1024.96 1024.96 1025.00 1025.00 1025.04 1025.00 1024.92 1024.84 1024.72 1024.60 1024.52 1024.40 1024.24 1024.12 1024.16 1024.24 1024.32 1024.36 1024.40 1024.44 1024.40 1024.32 1024.24 1024.16 1024.12 1024.04 1023.96 1023.88 1023.76 1023.56 1023.40
1020.36 1020.36 1020.44 1020.56 1020.60 1020.60 1020.64 1020.88 1021.08 1021.20 1021.28 1021.36 1021.36 1021.44 1021.68 1021.84 1022.00 1022.16 1022.28 1022.32 1022.48 1022.60 1022.80 1022.84 1023.00 1023.24 1023.08 1023.32 1023.24 1023.48 1023.60 1023.80 1024.28 1024.56 1024.84 1024.84 1024.92 1024.88 1024.76 1024.88 1024.96 1024.88 1024.96 1024.96 1025.00 1025.00 1025.04 1025.00 1024.92 1024.84 1024.72 1024.60 1024.48 1024.40 1024.28 1024.16 1024.04 1024.00 1024.04 1024.12 1024.24 1024.32 1024.36 1024.32 1024.24 1024.12 1024.04 1024.00 1023.96 1023.92 1023.88 1023.76 1023.60 1023.40
1020.40 1020.40 1020.44 1020.48 1020.56 1020.64 1020.80 1020.96 1021.08 1021.24 1021.36 1021.44 1021.48 1021.52 1021.68 1021.92 1022.04 1022.24 1022.40 1022.48 1022.60 1022.76 1022.84 1023.00 1022.92 1022.88 1023.28 1023.36 1023.24 1023.64 1023.68 1023.76 1023.96 1024.28 1024.60 1024.76 1024.96 1025.04 1025.00 1024.80 1024.96 1025.08 1025.16 1025.16 1025.08 1025.04 1025.00 1024.84 1024.76 1024.68 1024.56 1024.44 1024.44 1024.44 1024.28 1024.16 1024.12 1024.04 1024.00 1024.04 1024.12 1024.20 1024.20 1024.16 1024.08 1023.96 1023.88 1023.88 1023.92 1023.92 1023.88 1023.84 1023.68 1023.40
1020.44 1020.44 1020.44 1020.48 1020.56 1020.64 1020.80 1020.84 1021.00 1020.96 1021.16 1021.40 1021.52 1021.68 1021.80 1021.96 1021.96 1022.12 1022.36 1022.60 1022.68 1022.76 1022.84 1022.80 1022.92 1023.08 1023.28 1023.44 1023.92 1023.92 1023.72 1023.80 1024.36 1024.44 1024.48 1024.64 1024.92 1024.92 1025.16 1025.32 1025.16 1025.32 1025.44 1025.44 1025.24 1025.16 1025.08 1024.96 1024.88 1024.72 1024.60 1024.48 1024.44 1024.40 1024.24 1024.16 1024.20 1024.12 1024.08 1024.04 1024.08 1024.12 1024.12 1024.04 1023.96 1023.88 1023.84 1023.88 1023.96 1023.92 1023.88 1023.84 1023.72 1023.56
1020.48 1020.52 1020.52 1020.56 1020.64 1020.64 1020.72 1020.80 1020.84 1020.88 1020.96 1021.16 1021.44 1021.76 1021.88 1021.92 1021.96 1022.12 1022.20 1022.36 1022.56 1022.72 1022.76 1022.84 1023.04 1023.12 1023.36 1023.44 1023.52 1023.64 1023.72 1023.76 1024.04 1024.60 1024.64 1024.92 1025.32 1025.44 1025.16 1025.36 1025.52 1025.68 1025.72 1025.72 1025.56 1025.44 1025.44 1025.24 1025.08 1025.00 1024.84 1024.76 1024.64 1024.56 1024.52 1024.44 1024.36 1024.28 1024.20 1024.16 1024.12 1024.12 1024.12 1024.08 1024.00 1023.96 1023.92 1023.96 1023.96 1023.84 1023.76 1023.72 1023.64 1023.52
1020.64 1020.60 1020.60 1020.72 1020.76 1020.80 1020.88 1021.00 1021.08 1021.12 1021.16 1021.16 1021.12 1021.28 1021.60 1021.68 1021.84 1022.00 1022.12 1022.32 1022.44 1022.56 1022.64 1022.68 1022.92 1023.16 1023.36 1023.48 1023.48 1023.56 1024.12 1024.40 1024.64 1024.60 1024.60 1024.68 1025.28 1025.40 1025.32 1025.44 1025.48 1025.88 1025.84 1025.96 1025.72 1025.56 1025.56 1025.40 1025.12 1025.16 1025.16 1025.08 1025.04 1025.04 1024.96 1024.96 1024.76 1024.56 1024.40 1024.28 1024.20 1024.16 1024.16 1024.12 1024.12 1024.08 1024.04 1023.96 1023.88 1023.76 1023.60 1023.56 1023.48 1023.36
1020.64 1020.68 1020.76 1020.80 1020.84 1020.88 1020.96 1021.04 1021.00 1021.00 1021.04 1021.04 1021.16 1021.32 1021.40 1021.40 1021.44 1021.80 1022.08 1022.12 1022.28 1022.40 1022.48 1022.76 1022.76 1022.80 1023.28 1023.76 1023.84 1023.92 1024.28 1024.44 1024.40 1024.60 1024.84 1024.92 1025.00 1025.12 1025.24 1025.44 1025.52 1025.88 1025.88 1025.96 1025.80 1025.60 1025.72 1025.52 1025.40 1025.52 1025.48 1025.44 1025.44 1025.44 1025.48 1025.24 1024.96 1024.80 1024.64 1024.48 1024.32 1024.20 1024.08 1024.08 1024.04 1024.04 1024.00 1023.92 1023.80 1023.60 1023.48 1023.36 1023.28 1023.20
1020.60 1020.68 1020.76 1020.76 1020.76 1020.76 1020.76 1020.92 1021.12 1021.16 1021.08 1021.12 1021.24 1021.40 1021.52 1021.60 1021.72 1021.68 1021.60 1021.92 1022.28 1022.28 1022.44 1022.72 1022.64 1022.80 1023.04 1023.80 1024.08 1024.20 1024.40 1024.56 1024.68 1024.64 1024.64 1024.92 1025.20 1025.40 1025.48 1025.80 1025.72 1026.00 1025.92 1025.68 1025.60 1025.92 1025.96 1025.80 1025.72 1025.80 1025.80 1025.68 1025.76 1025.76 1025.68 1025.36 1025.12 1024.96 1024.80 1024.64 1024.48 1024.32 1024.16 1024.08 1024.00 1023.92 1023.84 1023.76 1023.60 1023.44 1023.32 1023.20 1023.12 1023.04
1020.52 1020.72 1020.76 1020.72 1020.88 1020.84 1020.80 1020.84 1020.92 1021.04 1021.24 1021.40 1021.36 1021.44 1021.56 1021.68 1021.72 1021.72 1021.84 1021.80 1021.64 1021.88 1022.08 1022.28 1023.00 1023.04 1023.48 1023.80 1023.92 1023.96 1024.04 1024.44 1024.44 1025.04 1025.08 1025.44 1025.52 1025.52 1025.40 1025.72 1025.96 1026.24 1026.20 1025.88 1025.68 1026.12 1026.52 1026.32 1026.20 1026.12 1026.04 1025.84 1025.84 1025.76 1025.64 1025.40 1025.24 1025.08 1024.92 1024.80 1024.64 1024.44 1024.28 1024.16 1024.04 1023.92 1023.76 1023.60 1023.44 1023.24 1023.08 1023.00 1022.88 1022.80
1020.36 1020.56 1020.60 1020.64 1020.68 1020.80 1020.88 1020.92 1020.92 1021.00 1021.08 1021.24 1021.36 1021.40 1021.44 1021.52 1021.68 1021.80 1021.88 1021.88 1021.96 1021.92 1021.84 1022.12 1022.44 1023.16 1023.20 1023.16 1023.60 1023.92 1024.04 1024.08 1024.40 1024.84 1025.04 1025.40 1025.28 1025.32 1025.40 1025.80 1026.24 1026.60 1026.36 1025.84 1025.80 1026.20 1026.60 1026.52 1026.36 1026.28 1026.16 1026.00 1025.96 1025.88 1025.72 1025.44 1025.28 1025.12 1025.00 1024.84 1024.68 1024.52 1024.36 1024.20 1024.04 1023.88 1023.72 1023.56 1023.36 1023.16 1022.96 1022.76 1022.64 1022.56
1020.04 1020.24 1020.32 1020.28 1020.24 1020.48 1020.68 1020.72 1020.72 1020.80 1020.88 1021.04 1021.16 1021.32 1021.48 1021.64 1021.88 1021.96 1021.96 1022.00 1022.08 1022.08 1022.24 1022.20 1022.36 1022.84 1023.16 1023.20 1023.48 1023.76 1024.04 1024.08 1024.32 1024.48 1024.60 1024.88 1025.08 1025.52 1026.04 1026.20 1026.64 1026.48 1026.36 1026.04 1025.72 1026.04 1026.52 1026.64 1026.44 1026.40 1026.28 1026.08 1025.92 1025.88 1025.68 1025.48 1025.32 1025.16 1025.00 1024.88 1024.68 1024.48 1024.32 1024.16 1024.00 1023.84 1023.64 1023.52 1023.32 1023.12 1022.92 1022.72 1022.56 1022.48
1020.12 1020.36 1020.24 1020.20 1020.20 1020.32 1020.40 1020.40 1020.52 1020.40 1020.64 1020.84 1021.16 1021.44 1021.76 1022.04 1022.28 1022.36 1022.76 1022.76 1022.52 1022.40 1022.24 1022.28 1022.52 1022.88 1023.12 1023.28 1023.52 1023.76 1024.04 1024.36 1024.64 1024.88 1025.16 1025.36 1025.44 1025.48 1025.48 1025.68 1026.16 1026.44 1026.44 1026.24 1025.96 1026.28 1026.32 1026.64 1026.60 1026.36 1026.20 1026.12 1025.80 1025.76 1025.68 1025.48 1025.28 1025.12 1025.00 1024.84 1024.64 1024.44 1024.28 1024.12 1023.96 1023.80 1023.60 1023.40 1023.24 1023.08 1022.88 1022.68 1022.52 1022.44
1019.96 1019.72 1020.04 1020.72 1021.16 1021.36 1021.04 1020.56 1020.56 1020.60 1020.76 1021.04 1021.12 1021.48 1021.84 1022.16 1022.12 1022.32 1022.72 1022.76 1022.68 1022.72 1022.52 1022.60 1022.72 1022.96 1023.20 1023.44 1023.64 1023.88 1024.00 1024.16 1024.52 1024.68 1024.84 1025.20 1025.44 1025.16 1025.48 1026.00 1026.20 1026.24 1026.48 1026.32 1026.16 1026.24 1026.32 1026.48 1026.64 1026.44 1026.20 1026.00 1025.76 1025.72 1025.64 1025.48 1025.32 1025.20 1025.00 1024.80 1024.64 1024.44 1024.24 1024.04 1023.88 1023.68 1023.52 1023.32 1023.16 1022.96 1022.80 1022.64 1022.48 1022.32
1019.84 1019.56 1019.64 1019.72 1020.36 1020.76 1020.56 1020.28 1020.40 1020.52 1020.56 1020.80 1020.96 1021.40 1021.80 1022.04 1022.08 1022.44 1022.76 1022.76 1023.04 1023.36 1023.44 1023.20 1023.08 1023.20 1023.36 1023.60 1023.80 1023.96 1024.12 1024.32 1024.40 1024.28 1024.56 1025.28 1025.48 1025.64 1025.76 1025.80 1026.08 1026.24 1026.56 1026.36 1026.24 1026.04 1026.28 1026.44 1026.56 1026.52 1026.24 1026.12 1025.80 1025.68 1025.52 1025.40 1025.24 1025.08 1024.88 1024.68 1024.48 1024.32 1024.12 1023.96 1023.76 1023.60 1023.44 1023.24 1023.04 1022.88 1022.68 1022.52 1022.44 1022.28
1019.84 1019.72 1019.60 1019.48 1019.68 1020.00 1019.96 1020.08 1020.20 1020.16 1020.32 1020.44 1020.64 1020.92 1021.32 1021.68 1021.80 1022.08 1022.44 1022.44 1022.80 1023.04 1023.48 1023.68 1023.44 1023.64 1023.92 1024.08 1024.12 1024.28 1024.36 1024.40 1024.44 1024.44 1024.76 1025.28 1025.12 1025.56 1025.84 1025.92 1026.04 1025.84 1026.04 1026.28 1026.20 1026.20 1026.40 1026.52 1026.44 1026.64 1026.28 1026.16 1025.80 1025.76 1025.48 1025.28 1025.04 1024.88 1024.72 1024.56 1024.40 1024.20 1024.04 1023.88 1023.68 1023.52 1023.36 1023.16 1022.96 1022.76 1022.60 1022.44 1022.40 1022.28
1019.68 1019.64 1019.52 1019.40 1019.36 1019.44 1019.44 1019.68 1019.84 1019.84 1019.88 1019.76 1020.04 1020.44 1020.80 1021.08 1021.24 1021.92 1022.28 1022.32 1022.32 1022.60 1022.80 1023.24 1023.56 1023.64 1024.08 1024.20 1024.24 1024.32 1024.44 1024.56 1024.64 1024.80 1024.96 1025.04 1025.12 1025.28 1025.56 1025.72 1025.84 1025.96 1026.04 1026.12 1026.28 1026.20 1026.44 1026.64 1026.28 1026.40 1026.28 1026.40 1026.00 1025.40 1025.32 1025.16 1024.92 1024.76 1024.60 1024.44 1024.28 1024.08 1023.96 1023.80 1023.64 1023.44 1023.28 1023.12 1022.92 1022.76 1022.56 1022.40 1022.28 1022.16
1019.36 1019.36 1019.32 1019.12 1019.08 1019.28 1019.36 1019.48 1019.48 1019.40 1019.48 1019.52 1019.72 1019.84 1019.88 1019.84 1020.36 1021.48 1022.36 1022.56 1022.28 1022.28 1022.72 1023.16 1023.28 1023.52 1023.84 1024.04 1024.28 1024.40 1024.60 1024.76 1024.84 1024.92 1024.96 1025.04 1025.04 1025.16 1025.48 1025.76 1025.88 1025.92 1026.08 1026.16 1026.24 1026.16 1026.20 1026.28 1026.24 1026.20 1026.08 1026.12 1025.80 1025.60 1025.24 1025.08 1024.72 1024.64 1024.44 1024.36 1024.24 1024.00 1023.92 1023.72 1023.60 1023.40 1023.20 1023.00 1022.80 1022.60 1022.44 1022.28 1022.16 1022.00
1019.08 1018.96 1018.92 1018.88 1018.84 1019.00 1019.12 1019.12 1019.40 1019.52 1019.40 1019.36 1019.44 1019.48 1019.48 1020.16 1020.56 1020.88 1021.48 1022.00 1022.32 1022.48 1022.84 1022.96 1023.04 1023.24 1023.60 1024.12 1024.40 1024.52 1024.52 1024.64 1024.80 1024.88 1025.00 1025.12 1025.16 1025.28 1025.36 1025.44 1025.72 1026.04 1026.16 1026.08 1026.08 1026.00 1026.20 1026.16 1026.04 1026.16 1026.04 1025.96 1025.72 1025.68 1025.40 1025.04 1024.64 1024.40 1024.36 1024.28 1024.24 1024.04 1023.88 1023.68 1023.52 1023.32 1023.16 1022.96 1022.72 1022.48 1022.32 1022.20 1022.04 1021.88
1018.44 1018.52 1018.68 1018.76 1018.88 1018.96 1019.12 1019.44 1019.48 1019.28 1019.56 1019.68 1019.56 1019.60 1019.92 1020.12 1020.52 1020.72 1021.16 1021.80 1022.12 1022.36 1022.68 1022.92 1023.16 1023.52 1023.72 1023.88 1024.12 1024.24 1024.36 1024.68 1024.96 1025.16 1025.28 1025.32 1025.36 1025.44 1025.60 1025.68 1025.72 1025.80 1025.92 1025.92 1026.00 1026.04 1026.16 1026.20 1026.08 1026.12 1026.08 1025.96 1025.92 1025.56 1025.32 1025.08 1024.64 1024.40 1024.28 1024.16 1024.04 1023.88 1023.72 1023.60 1023.44 1023.24 1023.04 1022.84 1022.60 1022.36 1022.24 1022.12 1021.92 1021.76
1018.12 1018.36 1018.44 1018.60 1018.80 1018.92 1019.00 1018.88 1018.84 1019.12 1019.24 1019.20 1019.16 1019.28 1019.76 1020.32 1020.60 1020.80 1021.24 1021.52 1021.76 1022.28 1022.80 1023.24 1023.60 1023.68 1023.76 1023.68 1023.80 1023.96 1024.40 1024.80 1024.92 1025.08 1025.24 1025.32 1025.44 1025.56 1025.68 1025.80 1025.84 1025.88 1025.84 1025.88 1025.96 1026.04 1026.04 1026.12 1026.08 1025.96 1025.96 1025.84 1025.80 1025.68 1025.48 1024.96 1024.72 1024.56 1024.36 1024.00 1023.96 1023.72 1023.52 1023.44 1023.32 1023.12 1022.88 1022.68 1022.48 1022.24 1022.16 1022.00 1021.80 1021.64
1018.00 1018.04 1018.36 1018.72 1018.76 1018.68 1018.60 1018.60 1018.84 1018.88 1018.88 1018.92 1019.52 1019.92 1020.04 1020.00 1020.36 1020.80 1021.28 1021.56 1021.92 1022.32 1022.80 1023.24 1023.52 1023.64 1023.64 1023.64 1023.92 1024.28 1024.44 1024.72 1024.92 1025.12 1025.48 1025.56 1025.68 1025.80 1025.84 1025.88 1025.88 1025.88 1025.88 1025.92 1025.92 1025.96 1025.96 1026.00 1026.00 1025.88 1025.76 1025.60 1025.64 1025.48 1025.40 1025.08 1024.88 1024.60 1024.48 1024.28 1023.80 1023.52 1023.48 1023.28 1023.20 1023.08 1022.80 1022.56 1022.32 1022.16 1022.08 1021.96 1021.76 1021.56
1017.92 1018.20 1018.48 1018.80 1019.16 1019.44 1019.52 1019.48 1019.40 1019.20 1019.00 1018.92 1019.16 1019.72 1020.04 1020.16 1020.20 1020.48 1020.84 1021.36 1021.68 1022.40 1022.96 1023.12 1023.20 1023.44 1023.80 1024.04 1024.28 1024.40 1024.48 1024.56 1024.80 1024.92 1025.20 1025.28 1025.48 1025.56 1025.52 1025.52 1025.68 1025.84 1025.88 1025.92 1025.92 1025.96 1025.96 1025.88 1025.88 1025.80 1025.72 1025.56 1025.44 1025.44 1025.28 1025.16 1024.84 1024.60 1024.44 1024.36 1024.00 1023.64 1023.36 1023.24 1023.08 1022.92 1022.72 1022.44 1022.20 1022.04 1021.88 1021.84 1021.68 1021.52
1018.36 1018.64 1018.88 1019.08 1019.32 1019.48 1019.52 1019.52 1019.64 1020.08 1020.12 1019.72 1019.72 1019.96 1020.00 1019.96 1020.04 1020.24 1020.56 1021.00 1021.64 1022.32 1022.68 1022.96 1023.24 1023.52 1023.96 1024.28 1024.32 1024.36 1024.44 1024.68 1024.88 1024.88 1025.00 1025.16 1025.44 1025.48 1025.52 1025.52 1025.80 1025.88 1025.92 1025.96 1025.96 1025.96 1025.92 1025.84 1025.76 1025.72 1025.76 1025.60 1025.44 1025.32 1025.16 1025.08 1024.92 1024.56 1024.28 1024.12 1024.00 1024.00 1023.36 1023.28 1023.12 1022.92 1022.64 1022.40 1022.16 1021.96 1021.84 1021.76 1021.56 1021.40
1018.44 1018.76 1019.04 1019.16 1019.28 1019.48 1019.64 1019.92 1020.00 1019.92 1019.80 1019.68 1020.12 1020.56 1020.36 1020.00 1020.48 1020.92 1021.28 1021.64 1021.96 1022.32 1022.48 1022.92 1023.32 1023.64 1023.72 1023.80 1024.24 1024.52 1024.56 1024.72 1024.96 1025.04 1024.96 1025.12 1025.36 1025.52 1025.44 1025.56 1025.84 1025.96 1025.88 1025.92 1025.92 1025.88 1025.80 1025.76 1025.72 1025.60 1025.56 1025.56 1025.56 1025.20 1025.00 1024.88 1024.72 1024.40 1024.20 1024.00 1023.88 1023.72 1023.52 1023.32 1023.08 1022.88 1022.68 1022.52 1022.28 1022.00 1021.84 1021.76 1021.56 1021.24
1018.84 1018.92 1019.08 1019.24 1019.40 1019.36 1019.52 1019.92 1020.12 1020.32 1020.12 1019.96 1020.20 1020.48 1020.72 1020.80 1021.00 1021.32 1021.48 1021.84 1022.24 1022.48 1022.52 1022.60 1022.76 1023.20 1023.60 1024.08 1024.32 1024.32 1024.48 1024.68 1024.88 1025.04 1025.08 1025.20 1025.08 1025.36 1025.44 1025.64 1025.76 1025.88 1026.00 1026.04 1026.00 1025.84 1025.72 1025.60 1025.52 1025.48 1025.44 1025.36 1025.28 1025.20 1025.12 1024.92 1024.40 1024.20 1024.20 1024.00 1023.84 1023.72 1023.48 1023.28 1023.12 1022.88 1022.68 1022.56 1022.44 1022.20 1021.88 1021.52 1021.36 1021.16
1018.72 1018.88 1018.92 1019.08 1019.24 1019.44 1019.52 1019.68 1019.92 1020.16 1020.40 1020.40 1020.40 1020.60 1020.88 1021.08 1021.16 1021.48 1021.80 1022.08 1022.36 1022.44 1022.40 1022.60 1022.68 1023.08 1023.44 1023.88 1024.08 1024.12 1024.44 1024.84 1024.96 1024.96 1024.72 1024.92 1025.04 1025.20 1025.48 1025.64 1025.84 1026.04 1026.08 1026.08 1026.04 1025.88 1025.64 1025.40 1025.32 1025.32 1025.32 1025.24 1025.08 1024.88 1024.72 1024.68 1024.44 1024.20 1024.12 1024.04 1023.88 1023.76 1023.44 1023.28 1023.04 1022.92 1022.88 1022.84 1022.60 1022.24 1021.80 1021.36 1021.08 1021.00
1018.80 1019.04 1019.24 1019.56 1019.68 1019.40 1019.24 1019.52 1019.88 1020.20 1020.32 1020.48 1020.72 1020.96 1021.00 1021.20 1021.36 1021.68 1021.96 1022.32 1022.44 1022.44 1022.56 1022.68 1022.84 1023.04 1023.16 1023.56 1023.88 1024.04 1024.28 1024.48 1024.68 1024.72 1024.88 1024.92 1025.08 1025.32 1025.56 1025.72 1025.96 1026.00 1026.08 1026.04 1026.00 1025.84 1025.76 1025.68 1025.60 1025.52 1025.36 1025.20 1024.88 1024.48 1024.24 1024.16 1024.28 1024.12 1024.12 1023.92 1023.76 1023.76 1023.52 1023.28 1023.20 1022.96 1022.88 1022.72 1022.52 1022.32 1021.96 1021.52 1021.16 1020.96
1018.84 1018.88 1019.12 1019.36 1019.40 1019.72 1019.60 1019.68 1020.12 1020.20 1020.16 1020.44 1020.80 1021.04 1021.12 1021.40 1021.68 1021.80 1022.12 1022.44 1022.36 1022.52 1022.60 1022.72 1022.92 1023.08 1023.32 1023.56 1023.76 1024.00 1024.20 1024.40 1024.56 1024.72 1024.80 1025.00 1025.12 1025.36 1025.52 1025.72 1025.84 1025.92 1026.04 1026.08 1026.04 1025.96 1026.00 1026.00 1025.96 1025.96 1025.76 1025.44 1025.24 1024.84 1024.40 1024.00 1023.96 1024.00 1024.16 1024.00 1023.72 1023.64 1023.52 1023.36 1023.20 1023.08 1022.80 1022.56 1022.44 1022.44 1022.16 1021.80 1021.52 1021.20
1018.72 1018.92 1018.96 1019.12 1019.40 1019.56 1019.76 1019.84 1020.16 1020.20 1020.20 1020.36 1020.68 1020.68 1020.96 1021.44 1021.88 1022.08 1022.44 1022.52 1022.44 1022.52 1022.72 1022.96 1023.12 1023.28 1023.40 1023.52 1023.72 1023.96 1024.24 1024.36 1024.52 1024.80 1025.08 1025.40 1025.44 1025.52 1025.60 1025.68 1025.76 1025.96 1026.00 1026.00 1026.16 1026.16 1026.16 1026.12 1026.00 1026.00 1025.88 1025.56 1025.36 1025.12 1024.56 1024.00 1023.80 1023.76 1023.80 1023.88 1023.68 1023.52 1023.52 1023.44 1023.28 1022.92 1022.68 1022.76 1022.60 1022.52 1022.44 1022.24 1021.96 1021.52
1018.36 1018.64 1018.92 1018.92 1019.04 1019.32 1019.52 1019.88 1020.08 1020.12 1020.32 1020.28 1020.52 1020.84 1021.24 1021.68 1022.12 1022.48 1022.64 1022.52 1022.68 1022.92 1023.08 1023.08 1023.32 1023.36 1023.48 1023.60 1023.72 1024.04 1024.40 1024.80 1024.96 1025.20 1025.36 1025.40 1025.52 1025.64 1025.64 1025.64 1025.72 1025.88 1026.00 1026.08 1026.12 1026.12 1026.16 1026.20 1026.04 1025.88 1025.88 1025.68 1025.48 1025.04 1024.64 1024.00 1023.96 1023.64 1023.60 1023.68 1023.80 1023.48 1023.40 1023.36 1023.12 1022.96 1022.76 1022.80 1022.88 1022.68 1022.52 1022.32 1021.96 1021.56
1018.40 1018.72 1019.00 1019.32 1019.40 1019.28 1019.52 1020.00 1020.36 1020.28 1020.20 1020.28 1020.60 1021.00 1021.56 1021.96 1022.28 1022.52 1022.60 1022.76 1022.96 1023.04 1023.24 1023.36 1023.44 1023.52 1023.52 1023.80 1024.00 1024.12 1024.60 1024.80 1025.04 1025.32 1025.44 1025.48 1025.52 1025.56 1025.56 1025.64 1025.72 1025.76 1025.84 1025.92 1026.04 1025.96 1026.00 1025.96 1025.80 1025.68 1025.68 1025.64 1025.44 1025.16 1025.08 1024.96 1024.36 1023.56 1023.48 1023.60 1023.68 1023.56 1023.36 1023.36 1023.32 1023.12 1023.16 1023.08 1022.92 1022.72 1022.40 1022.00 1021.68 1021.44
1018.60 1018.76 1018.88 1019.08 1019.16 1019.52 1019.68 1020.20 1020.32 1020.04 1020.08 1020.44 1020.84 1021.20 1021.52 1021.96 1022.28 1022.52 1022.68 1022.76 1022.96 1023.28 1023.40 1023.60 1023.72 1023.72 1023.92 1024.12 1024.32 1024.64 1024.84 1025.00 1025.24 1025.36 1025.40 1025.48 1025.52 1025.56 1025.56 1025.72 1025.68 1025.80 1025.96 1026.00 1026.00 1025.84 1025.80 1025.64 1025.52 1025.40 1025.36 1025.28 1025.08 1024.88 1024.84 1024.76 1024.48 1023.96 1023.64 1023.28 1023.28 1023.36 1023.32 1023.40 1023.36 1023.40 1023.24 1023.32 1023.28 1023.00 1022.52 1022.00 1021.80 1021.56
1018.48 1018.84 1018.96 1018.92 1019.16 1019.76 1020.08 1020.44 1020.48 1020.76 1021.00 1021.08 1021.08 1021.36 1021.64 1022.00 1022.28 1022.44 1022.52 1022.84 1023.08 1023.32 1023.68 1023.84 1023.72 1023.72 1023.92 1024.12 1024.32 1024.56 1025.00 1025.28 1025.40 1025.44 1025.52 1025.48 1025.40 1025.40 1025.52 1025.60 1025.60 1025.80 1025.96 1025.92 1025.88 1025.80 1025.56 1025.24 1025.08 1025.04 1025.08 1025.00 1024.88 1024.80 1024.72 1024.52 1024.08 1023.40 1023.20 1023.12 1023.28 1023.28 1023.24 1023.28 1023.24 1023.36 1023.48 1023.48 1023.32 1023.08 1022.72 1022.48 1022.28 1021.92
1018.00 1017.96 1018.40 1018.96 1019.52 1020.00 1020.24 1020.16 1020.08 1020.48 1021.12 1021.56 1021.64 1021.68 1021.92 1022.00 1022.20 1022.52 1022.88 1023.12 1023.32 1023.56 1023.72 1023.84 1023.96 1024.04 1024.20 1024.36 1024.72 1024.92 1025.00 1025.24 1025.36 1025.40 1025.36 1025.32 1025.28 1025.28 1025.36 1025.60 1025.72 1025.76 1025.92 1025.88 1025.68 1025.48 1025.20 1025.08 1025.00 1024.92 1024.84 1024.76 1024.64 1024.56 1024.36 1024.32 1024.12 1023.60 1023.20 1023.08 1023.16 1023.32 1023.28 1023.24 1023.28 1023.24 1023.28 1023.32 1023.28 1023.04 1022.76 1022.40 1022.28 1022.04
1018.40 1018.56 1018.72 1019.12 1019.44 1019.92 1020.24 1020.44 1020.76 1021.16 1021.48 1021.76 1021.76 1021.72 1021.84 1022.16 1022.48 1022.64 1022.92 1023.24 1023.48 1023.60 1023.76 1024.04 1024.24 1024.36 1024.52 1024.60 1024.76 1024.92 1025.04 1025.12 1025.08 1025.04 1025.12 1025.24 1025.24 1025.32 1025.44 1025.48 1025.64 1025.76 1025.80 1025.72 1025.48 1025.36 1025.20 1025.00 1024.88 1024.80 1024.68 1024.56 1024.44 1024.44 1024.32 1024.04 1023.92 1023.84 1023.48 1023.20 1023.04 1023.24 1023.32 1023.28 1023.28 1023.24 1023.20 1023.20 1023.16 1023.08 1023.08 1023.00 1022.80 1022.44
1018.36 1018.68 1019.08 1019.40 1019.68 1020.16 1020.40 1020.48 1020.72 1021.08 1021.40 1021.68 1021.72 1021.76 1021.88 1022.28 1022.64 1022.84 1023.00 1023.28 1023.40 1023.60 1023.80 1023.96 1024.16 1024.28 1024.52 1024.84 1024.96 1025.04 1024.92 1024.88 1024.92 1024.92 1025.08 1025.08 1025.24 1025.40 1025.40 1025.52 1025.60 1025.56 1025.56 1025.56 1025.40 1025.20 1025.00 1024.88 1024.76 1024.68 1024.56 1024.32 1024.36 1024.36 1024.24 1024.04 1023.84 1023.48 1023.32 1023.16 1023.12 1023.12 1023.00 1023.08 1023.16 1023.20 1023.12 1023.04 1023.00 1022.92 1022.88 1022.88 1022.84 1022.68
1018.88 1019.00 1019.32 1019.64 1019.96 1020.40 1020.56 1020.72 1020.92 1021.28 1021.72 1022.08 1022.12 1022.24 1022.52 1022.76 1022.96 1023.20 1023.28 1023.36 1023.48 1023.60 1023.72 1023.96 1024.20 1024.44 1024.60 1024.84 1024.84 1024.76 1024.80 1024.80 1024.84 1025.04 1025.32 1025.36 1025.32 1025.16 1025.32 1025.48 1025.48 1025.52 1025.44 1025.40 1025.44 1025.20 1025.00 1024.88 1024.64 1024.48 1024.40 1024.20 1024.20 1024.16 1024.00 1024.00 1023.84 1023.56 1023.24 1023.04 1023.00 1023.00 1023.04 1023.04 1022.96 1022.84 1022.88 1022.84 1022.80 1022.76 1022.76 1022.76 1022.68 1022.48
Wind_Speed
5 4 4 5 5 5 3 3 4 3 3 4 4 3 9 8 9 4 3 3 3 4 2 3 3 4 3 4 4 4 4 5 5 3 3 3 2 3 3 3 3 2 2 1 1 1 2 1 1 2 3 4 5 5 5 5 6 7 8 8 8 8 10 10 9 10 11 11 11 11 11 11 12 12
3 3 3 3 5 4 4 4 3 3 4 5 5 4 1 6 11 6 7 4 2 4 2 1 2 3 4 4 4 4 5 7 7 4 4 3 3 4 5 4 3 1 1 1 2 3 3 4 3 1 2 3 3 3 3 3 4 6 6 7 7 8 8 8 8 8 9 9 10 9 9 10 10 11
5 5 4 3 4 4 4 3 3 3 4 5 6 5 5 4 6 9 7 5 3 3 4 2 2 5 5 4 4 3 4 6 7 4 4 4 5 5 4 5 4 3 2 3 4 4 5 5 5 4 2 0 2 2 1 2 3 3 3 4 5 6 6 6 6 6 7 7 7 8 9 10 10 10
5 6 5 4 5 5 6 5 4 4 3 6 6 6 6 3 2 7 6 7 6 4 4 4 4 5 6 4 4 4 4 5 7 4 4 3 5 3 3 5 6 4 5 5 5 5 5 6 5 5 3 2 2 1 1 2 3 2 1 1 2 2 3 3 5 6 6 6 7 7 7 9 9 10
5 5 5 4 4 4 7 5 5 4 4 4 6 6 7 5 4 7 4 5 4 1 0 3 4 4 4 3 4 4 5 4 3 4 2 1 3 3 4 3 5 6 6 6 6 6 6 7 7 7 7 4 3 2 2 3 3 4 4 3 2 0 1 2 3 5 5 5 6 6 7 8 8 9
4 4 5 4 4 4 7 6 7 7 6 6 6 6 7 7 5 5 5 3 5 4 0 1 0 3 3 5 3 6 4 6 2 1 1 2 3 4 3 3 4 6 7 8 7 6 5 7 7 8 9 9 8 6 4 4 5 5 5 5 4 2 1 2 3 4 5 5 4 5 5 7 8 9
4 5 5 5 5 4 6 5 5 5 6 5 8 7 7 7 6 4 5 6 3 6 4 3 4 4 4 5 6 5 3 2 1 3 4 4 3 2 2 3 3 5 7 8 8 7 5 6 7 8 9 10 10 10 7 5 6 7 6 6 6 4 3 1 2 4 5 6 7 7 6 7 8 9
4 5 5 4 5 6 7 5 6 4 5 6 6 6 5 7 6 4 4 5 6 3 6 4 6 6 6 6 5 2 3 3 1 3 3 2 2 1 1 2 2 3 5 6 6 4 4 5 7 8 10 10 10 10 10 8 7 8 7 6 6 6 5 5 5 5 5 5 7 8 8 8 9 9
4 4 5 4 4 5 7 5 6 5 5 5 6 6 6 6 6 5 6 5 5 7 7 6 4 2 3 2 2 3 5 3 4 4 4 3 3 3 2 2 0 1 2 1 3 3 4 4 6 7 8 9 10 10 10 9 6 6 7 7 7 7 6 5 6 6 6 5 5 7 7 8 9 10
4 4 4 3 4 5 6 4 4 4 5 4 4 5 4 5 4 5 4 4 6 7 7 7 5 2 4 2 1 2 6 7 4 4 3 3 3 2 2 3 3 3 4 4 3 4 3 4 5 6 7 9 10 11 11 10 7 3 6 8 8 6 6 7 7 7 7 6 6 5 6 8 8 8
4 4 3 3 3 4 5 5 5 5 5 5 5 6 6 5 5 5 4 4 6 6 6 4 4 4 0 1 2 3 4 5 5 6 3 3 3 2 2 5 4 3 5 4 4 6 7 9 8 11 12 12 11 10 11 9 8 3 3 6 7 7 7 8 8 8 8 6 6 7 7 8 10 9
4 4 4 4 4 5 5 6 5 6 7 5 5 4 4 5 6 6 5 5 6 6 5 6 6 3 2 2 2 1 4 6 5 3 2 3 2 4 4 2 4 4 6 7 7 6 8 8 9 11 10 12 13 12 10 10 9 6 3 5 6 6 7 8 9 9 9 7 6 7 8 9 10 11
4 4 4 4 4 4 7 9 8 7 7 7 6 3 4 5 6 4 4 5 6 5 5 2 0 3 4 2 5 4 3 4 5 0 2 2 1 0 2 1 2 3 4 3 5 6 5 6 6 6 7 8 9 10 12 11 13 12 9 7 6 6 7 9 9 10 9 7 7 8 9 9 10 11
4 4 4 3 6 8 8 8 7 7 6 4 6 8 7 6 6 6 5 6 6 6 6 6 5 5 5 4 4 3 2 3 3 5 4 3 1 2 4 2 1 2 4 3 5 6 4 4 6 7 7 7 7 7 8 8 10 14 15 14 10 8 7 8 9 10 10 9 9 10 10 10 10 11
5 4 4 2 5 7 8 8 11 10 9 8 7 5 6 6 8 7 5 5 6 6 5 4 4 6 5 3 2 4 5 2 3 4 4 5 4 3 2 0 4 2 5 2 2 6 5 4 6 6 7 7 7 7 7 11 14 14 14 14 14 14 12 9 8 9 10 11 11 11 12 11 11 11
4 4 4 4 4 6 7 7 6 7 10 9 7 6 6 5 2 2 6 6 4 5 6 4 5 6 7 5 5 4 4 5 4 4 5 3 3 3 2 1 0 3 3 3 3 5 7 5 7 7 6 6 5 6 7 12 13 13 13 13 14 14 13 13 12 11 10 10 10 10 10 10 10 10
6 5 5 5 5 5 8 7 7 7 6 6 8 8 7 7 6 3 2 3 6 7 6 7 5 5 5 6 3 3 4 3 6 3 3 2 3 3 3 0 0 4 4 3 2 3 4 4 4 6 6 5 4 4 8 11 12 12 11 11 11 12 12 12 12 12 12 12 11 10 9 7 7 7
7 7 8 7 7 5 6 6 6 6 6 6 5 4 4 3 4 6 6 7 6 5 7 9 8 3 5 6 4 4 5 6 5 5 4 4 4 3 2 1 2 1 2 1 2 2 4 4 4 5 5 5 3 2 5 10 10 10 10 9 9 10 10 11 10 11 11 12 12 11 10 9 8 8
8 9 9 9 10 8 8 8 9 8 8 7 6 5 4 3 2 3 3 2 1 3 4 6 7 7 5 6 6 5 5 6 6 6 5 5 3 3 1 2 2 1 4 2 3 2 0 2 4 3 4 5 4 2 4 7 9 9 9 8 8 9 10 10 9 10 11 11 11 10 9 8 7 7
2 2 6 8 9 9 8 11 14 11 8 8 7 5 4 3 3 2 2 4 4 2 5 6 8 7 8 9 8 7 6 5 5 6 6 6 5 5 4 2 3 2 3 2 3 1 1 0 2 3 4 3 4 3 3 6 9 10 10 9 9 9 10 10 9 10 11 11 10 10 9 7 7 7
4 6 5 2 6 6 4 8 12 12 10 6 7 7 6 4 4 2 2 7 9 4 10 11 13 13 12 11 11 10 10 8 7 7 7 4 3 6 3 1 3 1 1 2 2 2 1 1 0 3 3 3 4 2 3 4 6 8 8 9 9 9 11 11 10 10 11 11 10 10 10 8 8 7
7 11 13 12 10 11 14 14 12 13 12 8 9 9 8 7 6 3 3 5 7 11 9 8 9 10 11 10 9 9 9 9 5 6 6 5 6 5 5 2 1 2 1 0 0 2 1 2 1 2 4 2 3 3 3 3 5 6 6 8 9 9 10 11 11 11 11 11 11 11 11 10 8 5
7 8 10 16 14 12 14 16 15 16 13 8 10 10 10 9 8 9 8 9 8 7 5 2 4 4 5 3 4 4 8 7 5 5 7 6 7 6 4 3 0 3 1 1 0 2 1 1 2 1 3 1 4 2 3 4 5 5 4 5 6 8 10 11 11 10 10 11 12 12 12 11 7 5
7 8 8 10 15 16 15 12 15 16 17 13 10 9 10 10 11 8 7 8 10 9 8 6 3 4 3 4 4 4 4 4 4 6 6 6 7 7 6 3 2 2 1 1 0 1 1 1 3 1 1 2 3 3 3 4 4 5 5 5 4 7 8 8 7 9 10 10 11 11 11 9 7 4
8 8 9 9 12 15 14 12 15 16 17 13 10 11 12 13 11 12 7 7 9 8 7 6 5 6 5 4 4 4 4 4 4 4 4 4 5 6 6 5 3 1 2 2 2 1 1 1 3 1 2 2 3 4 3 4 5 4 4 4 5 6 5 6 5 6 7 9 10 10 9 8 9 7
7 9 10 9 11 14 15 15 12 13 16 16 9 12 11 12 18 15 10 7 6 6 6 5 5 6 7 6 6 5 4 5 4 4 3 2 3 3 5 5 5 2 1 2 1 1 0 2 2 3 3 2 4 3 5 3 5 5 3 4 4 6 5 6 6 6 6 6 6 6 7 9 9 11
9 8 8 8 9 10 9 7 12 15 15 10 5 10 13 16 17 13 9 8 7 7 6 6 6 6 7 7 7 6 6 3 2 3 3 3 3 4 3 3 4 3 1 1 1 1 0 1 2 3 4 3 4 4 3 4 5 4 6 5 5 6 6 5 6 6 6 6 6 8 7 7 10 11
7 7 8 8 9 10 10 13 15 14 14 11 15 17 16 17 14 9 8 7 8 7 7 7 7 6 5 7 7 6 6 6 6 6 6 6 5 5 4 4 2 1 1 2 3 2 2 1 3 2 3 3 5 5 6 4 4 4 7 7 5 6 6 4 6 6 6 6 6 6 4 6 6 6
6 7 7 8 11 14 15 15 14 13 13 13 12 13 16 15 10 10 9 9 8 8 8 8 7 7 6 6 6 5 7 6 5 5 4 4 4 3 3 3 3 3 3 2 2 2 3 2 3 3 3 3 4 5 5 7 5 6 5 7 8 5 6 6 5 5 6 6 6 5 6 6 6 5
9 9 9 9 6 4 4 4 2 4 8 14 17 19 18 9 9 9 9 8 9 8 8 8 8 7 6 7 6 6 6 7 6 4 3 5 4 4 4 6 6 4 3 2 2 3 4 4 4 3 4 4 4 5 5 6 7 6 6 6 7 7 3 4 6 6 6 7 6 5 6 4 6 5
6 8 7 5 6 5 7 7 8 6 3 8 10 9 7 7 7 8 8 9 10 9 8 7 7 7 7 6 6 6 7 6 4 4 5 6 3 3 3 5 5 4 5 4 2 2 3 3 3 3 4 5 5 4 5 5 7 7 6 6 5 6 6 5 5 6 6 6 6 6 5 6 6 5
7 7 7 9 7 7 6 5 4 5 4 5 7 5 5 7 7 8 11 9 7 7 7 7 7 6 6 7 7 6 6 6 3 1 4 3 3 2 3 4 3 2 4 5 5 4 3 2 3 3 3 3 5 6 5 5 6 7 6 5 5 5 5 6 7 6 5 5 7 7 7 6 6 7
5 6 7 6 7 8 7 5 4 2 4 6 8 8 8 8 8 8 7 8 8 8 8 8 8 7 7 6 6 7 6 5 4 2 6 3 6 3 6 4 2 3 5 6 5 6 4 4 3 3 5 5 5 6 5 6 5 5 5 6 5 6 6 6 6 7 5 6 7 7 8 6 5 6
7 6 7 8 8 8 7 7 7 7 5 5 6 6 7 7 7 7 7 7 7 6 7 7 7 7 7 7 6 7 7 4 3 2 5 3 4 4 3 3 3 2 2 4 5 6 6 6 6 5 4 4 4 6 6 5 6 5 4 5 5 6 7 6 6 5 4 4 6 7 7 8 6 5
6 6 6 4 2 6 9 8 8 7 7 6 6 6 6 6 7 7 6 6 5 6 7 7 6 7 7 7 6 7 6 6 4 4 3 5 5 4 3 3 3 3 3 5 6 5 5 6 6 7 5 5 6 3 5 4 3 4 4 6 5 5 6 6 6 7 5 5 3 5 7 7 7 6
6 6 7 6 6 3 5 7 5 5 6 7 7 7 7 6 6 7 6 5 7 6 7 7 7 7 7 7 6 6 6 5 4 4 3 2 4 4 4 2 1 2 3 4 5 5 4 5 5 5 6 6 5 6 3 2 2 2 4 5 5 5 5 6 6 5 5 6 5 4 7 8 9 8
7 6 8 9 7 7 6 5 5 5 8 7 6 6 8 7 5 6 5 5 7 6 6 7 7 7 7 6 6 5 6 6 3 2 4 3 3 3 3 1 2 2 3 5 4 5 3 4 5 4 5 6 6 7 7 4 4 4 3 2 6 5 6 6 6 7 5 3 6 5 6 7 7 8
9 8 8 9 10 8 6 6 6 7 5 7 6 7 7 6 6 5 4 6 6 6 6 7 6 5 4 6 7 5 4 4 6 6 4 5 3 1 1 1 2 3 3 4 4 5 4 4 5 4 4 5 6 6 8 7 6 3 3 1 5 7 5 5 6 6 6 5 5 6 6 6 6 6
5 6 4 5 5 5 5 3 3 6 8 8 8 7 7 6 6 5 6 6 6 6 6 6 5 4 5 4 5 6 6 6 6 5 4 3 2 1 1 1 2 3 4 5 5 5 4 4 4 4 4 4 5 5 5 6 7 8 3 3 5 5 4 3 5 5 4 6 7 7 5 5 7 8
5 5 5 4 4 3 3 3 5 6 8 7 8 8 8 7 7 6 6 6 6 6 7 6 6 6 6 6 7 6 6 6 6 5 3 2 1 0 0 1 1 3 3 5 5 6 5 5 4 4 5 5 6 5 5 6 6 6 7 8 4 4 3 2 3 2 4 4 5 6 7 6 6 5
6 5 3 3 4 2 3 4 2 5 4 4 7 7 8 7 7 6 6 7 7 7 7 6 6 6 6 6 6 7 7 4 3 3 2 1 0 0 0 2 3 3 3 5 5 6 7 6 6 8 5 5 5 3 2 3 5 6 5 2 2 3 1 1 1 2 0 3 4 5 5 5 5 5
5 9 8 6 5 4 6 6 7 8 6 5 6 7 6 6 7 8 8 8 8 8 7 7 6 6 6 6 6 6 7 6 5 3 2 1 1 2 4 2 3 4 3 5 6 6 7 6 6 5 5 3 2 1 3 4 5 7 6 4 1 2 2 2 3 4 2 1 4 3 3 3 2 3
4 4 6 5 4 3 5 6 6 7 5 5 6 7 7 7 7 8 7 8 7 7 7 7 7 7 5 4 4 6 6 5 5 4 3 1 0 0 2 3 3 4 4 5 6 6 6 6 5 4 4 2 2 2 4 6 5 5 5 5 3 0 1 3 3 2 2 2 2 2 1 2 3 5
7 7 5 4 4 4 5 8 8 8 7 6 6 6 7 7 7 7 7 7 7 7 7 7 6 6 5 5 5 5 6 5 5 4 2 0 0 1 2 3 3 4 4 4 6 6 6 5 4 4 3 3 2 2 5 5 6 5 4 4 1 0 2 3 3 4 5 5 2 1 1 2 5 7
6 6 6 4 5 4 5 6 7 7 6 4 5 6 6 6 7 6 6 7 7 7 7 7 6 5 6 5 6 6 4 4 3 2 1 1 1 2 2 2 3 4 5 5 4 6 6 6 5 2 2 3 2 3 5 5 6 5 4 2 2 2 2 1 1 2 2 2 1 2 1 1 3 2
Wind_Direction
146 142 155 154 154 166 169 163 173 150 120 138 136 151 160 153 133 144 126 191 149 232 170 145 214 190 199 179 180 172 192 194 185 179 184 184 197 221 217 216 200 174 140 86 19 334 341 358 21 80 77 77 68 54 42 35 29 27 25 25 30 36 36 30 29 33 32 31 27 23 15 13 13 9
107 120 121 137 145 158 163 182 173 142 159 149 154 147 183 166 149 156 145 192 210 179 223 170 162 188 204 192 179 185 202 204 186 189 189 194 190 214 223 234 229 185 288 290 284 286 291 295 293 284 104 100 95 73 49 39 34 36 23 17 23 36 40 36 33 37 36 30 23 19 12 11 11 8
106 111 105 105 112 137 144 132 127 147 161 170 162 154 152 257 160 144 138 130 242 145 183 232 195 169 200 198 189 193 206 212 193 195 204 207 182 193 213 232 238 208 222 254 270 272 271 274 281 281 280 211 118 96 89 75 70 52 35 21 32 38 39 37 27 38 36 32 24 14 6 5 3 5
107 97 84 78 105 119 118 114 109 117 154 169 164 152 153 150 147 129 137 150 182 223 172 189 183 179 183 191 180 229 230 228 203 200 215 204 160 184 208 231 233 225 225 243 253 270 289 302 307 306 325 333 309 141 188 125 127 138 127 1 46 67 58 39 13 22 25 22 16 11 5 359 353 350
92 95 94 80 81 102 103 108 113 123 129 126 143 145 134 139 160 129 120 127 135 55 257 153 180 196 158 196 206 206 233 244 209 202 229 183 154 184 209 231 239 232 237 244 255 267 291 305 315 325 335 332 310 253 221 206 177 171 183 182 204 103 74 35 13 10 13 11 11 6 3 353 346 346
89 107 101 92 99 116 123 137 137 143 136 131 129 140 142 149 161 156 114 150 139 165 46 124 55 171 174 199 187 200 203 234 208 105 146 157 174 195 200 220 246 232 237 245 253 263 283 302 315 327 332 328 317 296 255 227 211 197 198 205 217 178 94 31 355 348 348 355 359 6 2 350 341 348
128 111 117 128 130 129 113 122 129 126 120 124 129 140 140 142 156 162 147 130 123 146 188 183 161 192 197 201 210 212 197 38 127 152 184 175 182 194 173 226 254 231 231 245 256 265 285 305 318 321 315 310 307 307 303 257 235 218 209 206 200 179 158 194 303 306 311 338 349 352 355 347 345 354
138 132 120 144 134 123 118 129 116 104 112 120 123 122 129 137 151 161 162 150 135 164 154 222 184 195 185 234 253 189 95 119 141 96 83 92 108 101 166 213 258 273 233 239 257 286 305 303 299 297 298 302 307 312 312 301 253 231 220 210 204 191 187 201 235 260 279 310 326 331 336 343 344 350
141 137 138 153 129 119 119 126 124 132 129 140 132 135 145 149 158 157 159 154 141 145 170 196 224 178 209 223 241 153 122 96 83 50 57 52 56 31 349 319 79 99 86 65 58 15 343 313 297 297 301 308 315 318 319 326 303 233 221 214 210 206 204 215 230 250 264 274 293 312 323 326 332 344
147 137 142 138 118 115 124 135 129 128 134 129 132 137 149 151 151 156 161 147 149 160 178 177 206 231 197 172 261 158 147 137 100 79 55 60 39 43 13 10 47 54 55 47 47 48 20 349 315 320 324 334 342 349 345 343 336 242 216 217 217 211 215 226 238 250 256 263 281 296 310 313 318 333
154 143 142 140 132 126 133 140 149 141 141 149 157 161 157 153 146 155 165 158 161 170 174 209 203 209 328 163 140 41 108 100 127 141 95 42 345 18 64 23 19 46 33 27 20 6 3 5 5 352 348 342 348 355 342 352 350 318 230 227 228 221 223 232 243 255 262 267 285 302 309 309 308 313
173 172 169 168 169 158 163 158 167 151 154 151 158 177 147 153 146 157 157 150 159 170 180 187 203 213 139 44 39 39 67 77 45 49 131 117 22 9 0 35 51 7 39 13 350 357 1 355 351 350 345 344 348 356 350 5 2 340 302 260 248 237 237 242 248 256 265 272 285 290 293 298 300 303
194 193 194 188 179 179 171 175 166 166 153 150 154 179 153 154 147 147 152 148 138 148 151 167 28 134 91 113 122 91 78 121 146 157 89 102 51 276 48 24 44 51 37 1 345 352 355 341 342 344 348 349 354 357 11 11 3 4 353 324 294 262 254 257 264 271 281 291 286 281 281 281 285 290
218 208 208 208 185 174 164 166 162 148 144 154 161 168 164 159 150 155 155 154 151 145 148 169 156 138 150 173 157 134 160 133 93 75 76 89 329 62 25 338 304 355 48 43 2 332 343 350 345 11 9 353 17 23 29 26 40 36 32 25 10 340 301 288 289 293 296 298 295 289 286 281 278 281
210 219 218 204 177 163 159 156 154 150 150 147 148 162 185 177 161 154 156 167 158 156 159 166 141 143 146 176 165 125 136 102 133 142 133 110 71 75 84 53 306 0 31 38 44 1 349 13 21 11 18 6 22 33 33 38 41 36 32 30 28 25 18 356 323 304 301 301 298 294 291 289 285 285
199 198 191 203 192 183 175 162 149 146 149 145 137 122 122 142 182 199 163 159 161 152 142 156 175 150 160 155 139 142 118 130 91 83 82 95 124 125 101 152 208 297 357 42 55 21 360 10 39 29 6 5 25 39 35 40 38 30 26 24 25 24 19 11 1 347 333 320 310 302 298 295 289 286
197 187 194 205 211 210 190 167 165 159 152 140 137 129 111 89 99 115 196 205 174 158 150 155 173 170 154 144 190 178 145 125 112 103 91 125 136 151 117 194 280 330 342 70 48 64 359 15 30 25 345 355 12 24 27 36 35 28 23 20 21 19 14 9 5 0 353 344 338 334 332 322 306 302
195 189 193 200 204 205 190 188 173 168 158 155 145 139 125 116 78 72 81 95 116 151 157 156 161 195 154 150 160 163 129 119 142 151 176 170 129 122 127 193 133 332 326 144 141 61 4 4 29 12 324 327 348 7 24 34 28 21 14 11 15 13 8 4 1 357 353 348 344 343 346 349 345 336
194 196 201 200 198 192 190 198 186 173 175 165 161 151 147 125 80 63 43 25 52 128 139 148 144 144 142 134 142 150 157 161 170 168 165 170 147 128 33 65 131 52 7 32 89 96 275 335 29 328 303 312 314 318 331 8 11 10 6 360 356 359 357 356 349 344 344 345 343 338 338 339 338 331
192 244 222 207 205 196 196 206 195 189 174 170 153 156 142 111 77 54 4 305 280 235 152 144 139 140 146 147 152 157 151 130 115 90 83 72 67 84 70 74 333 56 319 21 93 83 293 292 50 304 289 312 307 312 324 328 350 356 352 346 340 344 346 344 337 330 334 339 338 332 325 324 324 322
173 213 212 309 335 342 301 229 197 202 169 149 160 169 155 140 126 72 21 40 49 92 125 122 127 138 147 150 152 153 152 142 136 113 91 95 104 86 85 10 21 35 314 340 83 128 294 284 196 302 288 299 294 303 308 322 325 327 327 325 323 325 329 330 326 323 327 332 330 325 322 317 316 315
204 218 215 209 192 201 224 230 203 200 186 171 174 168 159 155 147 149 142 94 65 40 38 84 117 133 144 143 144 149 143 134 123 114 131 169 113 108 125 147 218 266 288 260 175 58 257 302 323 272 286 326 277 249 268 299 297 303 306 310 309 310 314 316 316 318 322 323 322 321 321 316 319 312
213 227 227 224 217 207 220 212 206 204 199 180 178 176 164 168 172 181 163 137 132 133 129 91 91 72 78 92 105 92 93 89 84 116 137 140 115 131 148 147 140 20 317 268 99 45 299 41 281 156 335 306 279 261 259 303 297 299 302 301 305 297 306 309 309 311 314 315 317 319 321 318 317 301
228 233 233 235 232 228 229 208 199 203 198 191 184 166 173 173 187 170 162 162 148 147 149 165 148 137 122 101 92 91 84 89 104 120 133 139 133 135 140 134 133 143 232 270 111 80 267 153 291 208 205 283 301 284 313 297 284 293 294 302 303 298 309 311 309 304 303 305 308 311 314 315 319 315
219 228 233 238 229 221 226 218 208 204 205 197 180 183 184 190 157 140 150 179 152 149 151 146 142 119 111 102 101 108 118 120 129 133 146 149 139 126 131 137 137 154 244 248 252 94 260 221 275 311 311 182 247 305 277 287 286 278 279 283 292 299 304 297 295 297 299 302 303 310 316 315 312 312
222 224 226 231 234 227 224 228 215 205 207 203 186 198 180 134 144 156 156 156 151 136 131 131 107 104 105 107 115 133 141 147 159 164 156 120 117 115 139 138 133 118 326 285 75 115 355 327 248 300 273 288 285 249 303 293 279 282 295 292 270 277 288 289 298 293 298 300 304 303 295 302 308 306
223 221 226 236 242 246 242 203 201 212 210 203 179 149 147 156 156 144 141 143 140 131 126 114 112 116 121 117 123 126 133 135 103 83 86 100 99 86 84 95 118 118 185 273 11 93 117 274 287 322 301 288 297 297 281 307 306 306 319 295 291 284 279 280 282 288 290 292 292 291 299 305 302 300
224 217 220 219 210 207 193 190 192 182 177 183 180 164 155 145 148 135 137 135 131 122 113 114 122 130 136 125 127 129 122 113 102 87 74 72 74 85 76 74 72 87 75 38 36 71 83 37 316 301 288 302 317 315 309 276 276 296 303 303 293 281 283 279 284 286 289 290 292 299 317 311 303 303
215 210 197 184 189 196 193 188 178 176 174 151 152 152 150 146 142 145 140 140 127 120 130 132 134 141 150 140 135 132 113 107 99 92 70 71 64 69 88 81 62 33 32 17 34 42 47 25 325 304 320 317 320 298 301 295 308 307 309 316 317 313 309 293 274 279 289 293 287 294 293 293 299 300
176 162 151 155 159 128 109 131 176 203 166 155 148 152 153 155 147 143 141 134 129 132 135 135 135 138 123 107 113 111 106 99 112 122 105 89 42 44 54 42 14 359 5 351 9 16 7 355 335 329 322 312 303 299 297 309 309 297 299 292 283 305 281 297 312 304 302 297 295 293 290 291 289 301
132 141 146 143 122 102 110 103 93 71 86 127 129 142 147 141 133 132 136 140 132 137 131 128 125 123 121 120 102 100 104 103 105 112 118 103 84 72 74 72 21 3 332 332 337 351 354 345 340 353 342 313 309 289 288 291 292 297 295 288 304 302 298 311 302 304 297 296 297 300 304 313 304 294
137 129 117 117 117 114 101 92 67 88 90 97 98 90 96 96 93 96 96 94 107 116 123 120 119 113 113 104 113 110 104 114 115 114 103 112 89 76 85 55 1 316 328 339 339 330 338 336 330 328 329 314 307 304 304 287 277 284 288 298 295 287 299 306 307 303 303 312 313 307 302 291 291 296
106 112 120 125 135 144 137 131 116 87 106 105 118 122 108 102 111 118 126 126 130 137 124 122 120 119 105 108 112 112 98 94 94 97 97 89 103 61 70 63 349 358 356 336 327 321 324 323 332 331 316 308 288 283 288 300 287 282 296 304 313 308 308 308 308 307 322 329 304 299 302 297 287 292
144 157 158 166 156 152 150 145 146 148 139 127 112 102 106 112 112 115 117 122 133 126 117 124 114 114 111 115 117 105 110 102 89 127 112 96 87 77 54 37 355 354 1 327 319 319 327 330 339 335 324 291 269 265 261 258 280 300 316 311 313 314 304 308 307 307 316 292 296 310 313 314 311 309
155 160 149 123 146 166 150 151 154 153 147 139 124 124 120 113 115 117 118 130 122 111 108 101 103 107 110 123 123 120 129 126 121 74 56 98 78 81 78 62 5 347 342 330 327 326 341 330 332 328 326 326 320 290 261 241 251 302 322 308 297 297 301 307 311 315 319 309 325 317 307 302 311 325
161 162 153 157 146 146 143 142 147 147 138 135 132 133 114 116 119 124 130 144 116 114 108 105 103 112 122 131 133 133 136 130 126 123 104 75 89 86 88 92 40 338 341 333 322 325 331 318 322 321 319 322 317 315 319 265 248 309 308 291 298 304 303 311 315 308 320 330 335 330 314 316 319 321
162 167 165 157 156 158 164 151 157 154 148 142 141 131 128 133 143 128 132 127 109 113 121 118 125 134 137 135 129 129 135 134 140 99 65 67 82 88 83 31 5 341 343 315 313 303 314 309 311 309 310 306 318 318 309 315 302 279 217 271 308 310 305 312 320 323 322 331 321 322 310 312 311 309
173 170 172 173 167 165 164 167 164 148 149 135 130 120 120 125 123 121 123 107 115 114 115 120 140 129 115 119 123 131 103 68 79 88 97 91 83 65 96 73 333 316 307 306 310 303 299 283 290 293 296 299 304 313 320 324 328 310 192 2 300 298 314 324 326 325 323 344 325 315 318 307 297 301
149 147 139 134 114 142 147 151 168 159 143 135 128 131 129 124 120 119 115 118 125 117 102 90 88 101 109 98 99 120 112 99 90 104 107 124 135 120 24 43 345 318 349 325 313 304 302 287 286 281 272 279 286 292 291 300 292 294 283 266 260 288 293 311 300 310 325 329 330 322 295 264 262 280
103 105 127 136 100 66 100 158 199 161 137 136 132 134 132 132 133 133 131 125 106 95 100 108 110 94 87 102 100 90 89 110 128 138 143 154 164 124 117 251 294 320 325 308 308 305 306 295 280 274 276 267 266 261 260 260 274 283 282 297 238 203 262 318 298 318 315 319 319 323 325 337 356 345
131 116 112 97 97 136 155 185 118 67 78 110 125 129 130 136 132 139 130 121 116 108 105 104 97 97 105 107 113 115 119 136 134 140 140 113 18 256 297 29 352 319 316 299 298 298 291 281 284 287 277 266 269 280 286 301 291 297 301 293 80 25 355 285 207 133 231 305 321 303 320 330 327 330
158 157 158 158 158 176 177 165 146 134 135 144 139 137 134 129 126 119 112 110 107 108 108 107 104 99 101 112 121 126 131 147 148 144 147 135 26 5 2 18 327 310 308 295 292 284 280 294 300 299 289 293 299 343 286 266 278 291 293 313 13 32 42 119 143 150 154 334 328 322 312 300 313 334
111 123 138 132 135 159 141 118 110 124 140 151 147 137 130 123 123 116 113 112 112 112 113 110 109 108 114 134 141 140 136 139 146 136 115 109 156 288 341 310 295 290 283 281 282 284 293 299 305 307 302 291 247 194 265 277 275 281 295 309 308 269 305 288 272 208 229 293 310 252 267 294 335 338
133 130 128 139 137 143 141 138 135 136 140 147 141 133 125 126 120 123 124 126 123 123 121 115 110 111 125 137 133 124 134 149 144 129 160 213 83 329 286 305 310 303 298 290 297 302 304 308 298 291 311 305 277 255 269 283 288 279 282 284 299 292 281 300 319 313 296 244 231 72 356 275 252 259
90 123 139 135 127 142 131 122 116 111 104 101 104 106 106 107 114 115 114 116 115 115 110 108 106 112 122 127 124 125 140 139 123 77 55 5 330 307 334 314 308 304 297 295 305 304 311 313 305 290 261 283 261 240 271 266 276 295 293 293 286 261 267 255 301 305 307 297 312 64 32 288 269 354